This demonstration page uses our WeatherBlox Daily Observations layout. Learn more.

38.80484, -77.04692

Hourly Observations for October 11, 2019

Temp ( °F °C ) Dew Point ( °F °C ) Humidity (%) Winds ( mph kmh ) Pressure ( in mb ) Visibility ( mi km ) Precip ( " mm )
12:52 am 00:52 Clear 64 17.8 49 9.4 58 58 NE 8 13 30.15 1021 10 16.09344 0 0
1:52 am 01:52 Clear 62 16.7 45 7.2 54 54 NNE 8 13 30.15 1021 10 16.09344 0 0
2:52 am 02:52 Clear 60 15.6 44 6.7 56 56 NNW 9 15 30.15 1021 10 16.09344 0 0
3:52 am 03:52 Clear 58 14.4 45 7.2 62 62 NNW 9 15 30.15 1021 10 16.09344 0 0
4:52 am 04:52 Clear 58 14.4 43 6.1 58 58 NNW 10 17 30.15 1021 10 16.09344 0 0
5:52 am 05:52 Clear 57 13.9 41 5 55 55 NNW 10 17 30.15 1021 10 16.09344 0 0
6:52 am 06:52 Partly Cloudy 56 13.3 40 4.4 55 55 N 12 19 30.15 1021 10 16.09344 0 0
7:52 am 07:52 Partly Cloudy 57 13.9 36 2.2 45 45 N 12 19 30.15 1021 10 16.09344 0 0
8:52 am 08:52 Partly Cloudy 61 16.1 34 1.1 36 36 NNE 14 22 30.15 1021 10 16.09344 0 0
9:52 am 09:52 Partly Cloudy 63 17.2 33 0.6 33 33 N 12 19 30.15 1021 10 16.09344 0 0
10:52 am 10:52 Partly Cloudy 66 18.9 35 1.7 32 32 N 7 11 30.15 1021 10 16.09344 0 0
11:52 am 11:52 Mostly Sunny 69 20.6 38 3.3 32 32 N 10 17 30.12 1020 10 16.09344 0 0
12:52 pm 12:52 Mostly Sunny 71 21.7 41 5 34 34 N 8 13 30.09 1019 10 16.09344 0 0
1:52 pm 13:52 Mostly Sunny 75 23.9 42 5.6 31 31 NNW 8 13 30.06 1018 10 16.09344 0 0
2:52 pm 14:52 Mostly Sunny 76 24.4 43 6.1 31 31 NNW 14 22 30.03 1017 10 16.09344 0 0
3:52 pm 15:52 Mostly Sunny 76 24.4 44 6.7 32 32 N 10 17 30.03 1017 10 16.09344 0 0
4:52 pm 16:52 Mostly Sunny 75 23.9 45 7.2 34 34 NNE 9 15 30.03 1017 10 16.09344 0 0
5:52 pm 17:52 Mostly Sunny 73 22.8 45 7.2 37 37 N 12 19 30.03 1017 10 16.09344 0 0
6:52 pm 18:52 Mostly Clear 70 21.1 46 7.8 42 42 N 12 19 30.03 1017 10 16.09344 0 0
7:52 pm 19:52 Clear 69 20.6 47 8.3 45 45 NNE 8 13 30.03 1017 10 16.09344 0 0
8:52 pm 20:52 Clear 66 18.9 49 9.4 54 54 ENE 5 7 30.03 1017 10 16.09344 0 0
9:52 pm 21:52 Clear 65 18.3 50 10 59 59 ENE 7 11 30.06 1018 10 16.09344 0 0
10:52 pm 22:52 Clear 63 17.2 50 10 63 63 Calm 30.06 1018 10 16.09344 0 0
11:52 pm 23:52 Clear 63 17.2 50 10 63 63 Calm 30.03 1017 10 16.09344 0 0

Powered by AerisWeather